[[{"header":{"parameterUnit":"m.s-1","parameterCategory":1,"la1":30.2991,"la2":30.254,"lo1":-89.0895,"lo2":-89.0444,"dy":0.0017,"dx":0.0017,"nx":28,"ny":28,"refTime":"2024-08-05T21:00:00:Z","depth":0,"parameterNumber":2,"parameterNumberName":"U-component_of_WINDS"},"data":[0,0,0,0,0,0,0,0,0,0,0,0,0,0,0,0,0,0,0,0,0,0,0,0,0,0,0,0,0,0,0,0,0,0,0,0,0,0,0,0,0,0,0,0,0,0,0,0,0,0,0,0,0,0,0,0,0,0,1.538,1.5381,0,1.544,1.544,1.5441,1.5428,1.5427,1.5426,1.5425,1.5488,1.5491,1.5493,0,0,0,0,0,0,0,0,0,0,0,0,0,1.5259,1.5262,1.538,1.5381,1.5382,1.544,1.544,1.5441,1.5428,1.5427,1.5426,1.5424,1.5487,1.549,1.5494,0,0,0,0,0,0,0,0,0,0,0,0,0,1.5315,1.5262,1.538,1.5382,1.5383,1.5439,1.544,1.5441,1.5429,1.5427,1.5425,1.5424,1.5486,1.549,1.5494,1.5553,0,0,1.5507,1.5508,0,0,0,0,0,0,0,0,1.5311,1.5319,1.5381,1.5382,1.5383,1.5425,1.5421,1.5479,1.5429,1.5412,1.5425,1.5423,1.5469,1.5474,1.5489,1.5556,1.5558,1.5507,1.5509,1.5511,1.5512,0,0,0,0,0,0,0,1.5308,1.5316,1.5404,1.5382,1.5384,1.5381,1.5387,1.5432,1.5449,1.5413,1.5412,1.5419,1.5469,1.5485,1.549,1.5559,1.5507,1.551,1.5513,1.5515,1.5679,1.5681,0,0,0,0,0,0,1.5303,1.5313,1.5402,1.5406,1.5342,1.5385,1.5392,1.5413,1.5448,1.5452,1.5421,1.5418,1.5479,1.5485,1.5492,1.5565,1.5511,1.5515,1.5517,1.5677,1.5679,1.5681,0,0,0,0,0,0,1.53,1.5311,1.54,1.5359,1.537,1.5389,1.5413,1.5415,1.5431,1.5454,1.5457,1.5434,1.5478,1.5487,1.5538,1.5567,1.5517,1.552,1.5675,1.5678,1.568,1.5709,0,0,0,0,0,0,1.5297,1.531,1.5331,1.536,1.5373,1.5443,1.5415,1.5418,1.5438,1.5436,1.5467,1.5471,1.5477,1.5532,1.5542,1.5571,1.5524,1.5672,1.5676,1.5679,1.5705,1.5712,1.5718,0,0,0,0,0,1.5292,1.5337,1.5333,1.5343,1.54,1.5445,1.5453,1.5458,1.544,1.5463,1.5478,1.547,1.5561,1.5537,1.5549,1.5579,1.567,1.5675,1.5679,1.5702,1.5711,1.5718,0,0,0,0,0,0,1.5312,1.5341,1.5336,1.5391,1.5416,1.5443,1.5471,1.5467,1.5497,1.5494,1.55,1.5508,1.556,1.5575,1.5547,1.5639,1.5614,1.562,1.5627,1.5636,1.5642,1.5638,1.5527,0,0,0,0,0,1.5323,1.5356,1.538,1.5427,1.5439,1.5453,1.5473,1.5475,1.5501,1.5512,1.553,1.5556,1.5591,1.5614,1.5647,1.5707,1.5714,1.5734,1.574,1.5745,1.5751,1.5786,1.5795,1.5695,1.5695,1.5695,0,0,1.5346,1.5366,1.5386,1.5431,1.545,1.5486,1.5462,1.55,1.5527,1.5518,1.5567,1.5582,1.5612,1.5668,1.5693,1.5682,1.578,1.5751,1.5754,1.5758,1.5791,1.58,1.5809,1.5698,1.5698,1.5697,0,0,1.5406,1.5424,1.5465,1.5485,1.5514,1.5523,1.5533,1.5561,1.557,1.562,1.5614,1.5646,1.5705,1.5727,1.5746,1.5815,1.581,1.5826,1.586,1.5893,1.5901,1.5908,1.5934,1.5943,1.5832,1.5832,1.5832,0,1.5431,1.5483,1.5487,1.5526,1.5547,1.5539,1.5582,1.5601,1.564,1.5655,1.5641,1.5716,1.5735,1.5797,1.5814,1.5829,1.5842,1.5823,1.5899,1.5906,1.5913,1.5938,1.5948,1.5834,1.5833,1.5833,1.5833,0,1.5514,1.555,1.558,1.5618,1.5641,1.5682,1.5693,1.5717,1.5717,1.5728,1.578,1.5803,1.5841,1.5855,1.5856,1.5918,1.591,1.5897,1.5873,1.5924,1.5948,1.5958,1.5836,1.5836,1.5835,1.5835,0,0,1.5589,1.5628,1.5639,1.5656,1.5688,1.5717,1.5758,1.5794,1.5815,1.5842,1.5878,1.5929,1.5918,1.5939,1.5942,1.5971,1.6026,1.5955,1.5956,1.5969,1.6098,1.6108,1.6119,1.6022,1.6024,1.6025,1.6096,0,1.5653,1.5724,1.5729,1.5794,1.5829,1.5822,1.5858,1.5882,1.5894,1.5926,1.5939,1.5975,1.5957,1.597,1.5998,1.6014,1.6053,1.6008,1.6057,1.6059,1.6051,1.6131,1.6142,1.6208,1.6105,1.6107,1.6108,0,1.5738,1.5767,1.5835,1.5863,1.5878,1.591,1.5945,1.5975,1.6002,1.6009,1.6033,1.6032,1.6076,1.6048,1.6109,1.6079,1.6099,1.6109,1.6112,1.6118,1.6087,1.6141,1.6228,1.6239,1.6122,1.6121,1.612,0,1.5788,1.5844,1.5893,1.5908,1.5941,1.5964,1.5979,1.6004,1.6027,1.6057,1.6072,1.6107,1.6127,1.6155,1.6164,1.6143,1.6225,1.6198,1.6233,1.6233,1.6252,1.6251,1.6346,1.6263,1.6262,1.6262,1.6262,0,1.586,1.5902,1.5916,1.5946,1.5994,1.5999,1.6047,1.6061,1.6084,1.6117,1.6113,1.6145,1.6155,1.6189,1.6196,1.6246,1.6255,1.6262,1.6264,1.6264,1.6263,1.6278,1.6274,1.6265,1.6264,1.6264,1.6263,0,1.5924,1.5935,1.5988,1.6014,1.6022,1.6057,1.608,1.611,1.6121,1.6163,1.6174,1.6191,1.6231,1.6242,1.629,1.6295,1.6355,1.6351,1.6345,1.6346,1.6381,1.6378,1.6489,1.6505,1.641,1.6411,1.6412,0,1.597,1.6003,1.6033,1.6055,1.6071,1.6106,1.6129,1.6136,1.6159,1.6194,1.622,1.6258,1.629,1.6354,1.6372,1.6409,1.6407,1.6444,1.6413,1.6412,1.641,1.6409,1.6413,1.645,1.6451,1.6452,1.6453,0,1.6052,1.6055,1.6088,1.6122,1.6149,1.6176,1.6203,1.6221,1.6232,1.6259,1.6299,1.6324,1.6373,1.6412,1.645,1.6466,1.6462,1.6462,1.6473,1.6473,1.6469,1.6473,1.6363,1.646,1.6459,1.6459,1.6458,1.6458,1.611,1.6139,1.6165,1.6201,1.6222,1.6247,1.6276,1.6291,1.6324,1.6364,1.6366,1.641,1.6438,1.6487,1.6506,1.6541,1.6531,1.6545,1.6549,1.6553,1.6557,1.6462,1.6548,1.6548,1.6548,1.6547,1.6547,0,1.6192,1.6209,1.6242,1.6279,1.6308,1.63,1.6329,1.6354,1.6393,1.6419,1.645,1.6497,1.6535,1.6555,1.6594,1.6618,1.6618,1.6628,1.6628,1.6632,1.6563,1.6551,1.6629,1.6629,1.6629,1.6629,1.6629,1.6628,1.6239,1.6288,1.6295,1.6355,1.6371,1.6414,1.6431,1.6455,1.6476,1.6528,1.6559,1.6572,1.6596,1.6636,1.6672,1.6677,1.6692,1.6704,1.6709,1.6645,1.6636,1.6629,1.6617,1.6707,1.6707,1.6774,1.6775,1.6775]},{"header":{"parameterUnit":"m.s-1","parameterCategory":1,"la1":30.2991,"la2":30.254,"lo1":-89.0895,"lo2":-89.0444,"dy":0.0017,"dx":0.0017,"nx":28,"ny":28,"refTime":"2024-08-05T21:00:00:Z","depth":0,"parameterNumber":3,"parameterNumberName":"V-component_of_WINDS"},"data":[0,0,0,0,0,0,0,0,0,0,0,0,0,0,0,0,0,0,0,0,0,0,0,0,0,0,0,0,0,0,0,0,0,0,0,0,0,0,0,0,0,0,0,0,0,0,0,0,0,0,0,0,0,0,0,0,0,0,-2.0571,-2.0572,0,-2.0638,-2.0638,-2.0639,-2.0691,-2.0692,-2.0692,-2.0693,-2.076,-2.0761,-2.0763,0,0,0,0,0,0,0,0,0,0,0,0,0,-2.0489,-2.0491,-2.0571,-2.0572,-2.0573,-2.0637,-2.0638,-2.0639,-2.0691,-2.0692,-2.0692,-2.0693,-2.076,-2.0761,-2.0763,0,0,0,0,0,0,0,0,0,0,0,0,0,-2.0537,-2.0491,-2.0571,-2.0606,-2.061,-2.0637,-2.0638,-2.064,-2.0691,-2.0692,-2.0692,-2.0693,-2.0759,-2.0761,-2.0763,-2.076,0,0,-2.0769,-2.077,0,0,0,0,0,0,0,0,-2.0534,-2.054,-2.06,-2.0604,-2.0608,-2.0657,-2.0635,-2.068,-2.0691,-2.066,-2.0693,-2.0693,-2.0725,-2.073,-2.0741,-2.0763,-2.0766,-2.0769,-2.0771,-2.0771,-2.0772,0,0,0,0,0,0,0,-2.0531,-2.0538,-2.0597,-2.0601,-2.0606,-2.0619,-2.0627,-2.0643,-2.0688,-2.0663,-2.0667,-2.0674,-2.0727,-2.0739,-2.0743,-2.0767,-2.0769,-2.0771,-2.0772,-2.0773,-2.0794,-2.0794,0,0,0,0,0,0,-2.0522,-2.0534,-2.0595,-2.0599,-2.0572,-2.062,-2.0629,-2.064,-2.0688,-2.0695,-2.0673,-2.0676,-2.0735,-2.074,-2.0745,-2.0747,-2.0771,-2.0773,-2.0774,-2.0795,-2.0794,-2.0794,0,0,0,0,0,0,-2.052,-2.0527,-2.0592,-2.0568,-2.0577,-2.0621,-2.0634,-2.0641,-2.0653,-2.0695,-2.0704,-2.0677,-2.0736,-2.0743,-2.0757,-2.075,-2.0774,-2.0776,-2.0796,-2.0795,-2.0794,-2.075,0,0,0,0,0,0,-2.0518,-2.0526,-2.0525,-2.0568,-2.0578,-2.0602,-2.0633,-2.0642,-2.0656,-2.066,-2.0701,-2.0708,-2.0737,-2.0754,-2.0759,-2.0754,-2.0778,-2.0797,-2.0795,-2.0794,-2.0752,-2.0748,-2.0744,0,0,0,0,0,-2.0515,-2.0509,-2.0525,-2.0532,-2.0578,-2.0602,-2.0608,-2.0642,-2.0655,-2.0655,-2.0683,-2.0707,-2.075,-2.0755,-2.0761,-2.0756,-2.0797,-2.0796,-2.0794,-2.0754,-2.0749,-2.0744,0,0,0,0,0,0,-2.0464,-2.0515,-2.0533,-2.0541,-2.0567,-2.0611,-2.0611,-2.0634,-2.0656,-2.0659,-2.07,-2.0708,-2.0719,-2.0739,-2.0743,-2.0758,-2.0777,-2.0777,-2.0744,-2.0739,-2.0735,-2.073,-2.0779,0,0,0,0,0,-2.0454,-2.0469,-2.0513,-2.0516,-2.0528,-2.0567,-2.0579,-2.0603,-2.0631,-2.0642,-2.0671,-2.0697,-2.0717,-2.0729,-2.0749,-2.0755,-2.0766,-2.0755,-2.0751,-2.0747,-2.0747,-2.0754,-2.075,-2.0789,-2.0789,-2.0789,0,0,-2.0433,-2.0463,-2.0469,-2.0506,-2.0529,-2.0545,-2.0576,-2.059,-2.0602,-2.0644,-2.066,-2.0682,-2.0714,-2.0725,-2.0731,-2.0742,-2.0739,-2.0745,-2.0742,-2.0744,-2.0752,-2.0748,-2.0745,-2.0788,-2.0788,-2.0788,0,0,-2.0403,-2.0426,-2.0432,-2.0455,-2.049,-2.0516,-2.0518,-2.0558,-2.0575,-2.0592,-2.0624,-2.0639,-2.0672,-2.0694,-2.071,-2.0691,-2.0715,-2.0697,-2.0675,-2.0681,-2.0678,-2.0676,-2.0671,-2.0669,-2.0696,-2.0696,-2.0696,0,-2.0372,-2.0397,-2.0433,-2.0446,-2.0462,-2.0501,-2.0509,-2.0529,-2.0568,-2.0578,-2.059,-2.0634,-2.0658,-2.0676,-2.0672,-2.0682,-2.0687,-2.0692,-2.0676,-2.0674,-2.0672,-2.0668,-2.0666,-2.0693,-2.0694,-2.0694,-2.0694,0,-2.0359,-2.0375,-2.0376,-2.0414,-2.043,-2.044,-2.0479,-2.0491,-2.0514,-2.0539,-2.0557,-2.0588,-2.0617,-2.0623,-2.0644,-2.0644,-2.065,-2.0668,-2.0689,-2.0665,-2.0662,-2.0661,-2.069,-2.0691,-2.0692,-2.0692,0,0,-2.0297,-2.0357,-2.0357,-2.0376,-2.0418,-2.0432,-2.0444,-2.0473,-2.0484,-2.0509,-2.0522,-2.055,-2.0568,-2.0586,-2.061,-2.0616,-2.0602,-2.0634,-2.0635,-2.0628,-2.0606,-2.0594,-2.0591,-2.0617,-2.0617,-2.0617,-2.0604,0,-2.0275,-2.0301,-2.0335,-2.0349,-2.0366,-2.0404,-2.0416,-2.0443,-2.0468,-2.0486,-2.0513,-2.0533,-2.0554,-2.0566,-2.0573,-2.0602,-2.0598,-2.0603,-2.0631,-2.0631,-2.0623,-2.0589,-2.0575,-2.0562,-2.0603,-2.0603,-2.0603,0,-2.0253,-2.0278,-2.0294,-2.0337,-2.0346,-2.0355,-2.0386,-2.0402,-2.0435,-2.0453,-2.0474,-2.0501,-2.0518,-2.0535,-2.056,-2.0562,-2.0576,-2.0592,-2.0593,-2.0597,-2.0616,-2.0594,-2.0558,-2.0556,-2.0601,-2.0601,-2.0601,0,-2.0209,-2.0247,-2.0263,-2.0277,-2.0327,-2.0333,-2.0354,-2.0388,-2.0404,-2.043,-2.0441,-2.0469,-2.0484,-2.0506,-2.054,-2.055,-2.0562,-2.0582,-2.0578,-2.0577,-2.0579,-2.0579,-2.0546,-2.0586,-2.0586,-2.0586,-2.0586,0,-2.0182,-2.0191,-2.0244,-2.0254,-2.0265,-2.0305,-2.0315,-2.034,-2.037,-2.0385,-2.042,-2.0434,-2.0478,-2.0497,-2.0524,-2.0542,-2.0548,-2.0564,-2.0571,-2.0562,-2.056,-2.0572,-2.0574,-2.0585,-2.0585,-2.0585,-2.0585,0,-2.0135,-2.0171,-2.0191,-2.0237,-2.0249,-2.0256,-2.0296,-2.0307,-2.0334,-2.0354,-2.0361,-2.0404,-2.0429,-2.0465,-2.0501,-2.0519,-2.0533,-2.0544,-2.0522,-2.0527,-2.0522,-2.0523,-2.0496,-2.0496,-2.0534,-2.0534,-2.0533,0,-2.0116,-2.0124,-2.0172,-2.0185,-2.0205,-2.0226,-2.0243,-2.0282,-2.0299,-2.0338,-2.0344,-2.0372,-2.0397,-2.0435,-2.047,-2.0498,-2.0511,-2.05,-2.0516,-2.0507,-2.0513,-2.0513,-2.0515,-2.0497,-2.0496,-2.0495,-2.0495,0,-2.0078,-2.0097,-2.012,-2.015,-2.0169,-2.0195,-2.0222,-2.0231,-2.0276,-2.0293,-2.032,-2.0339,-2.0376,-2.0404,-2.0438,-2.046,-2.0486,-2.049,-2.0491,-2.0482,-2.047,-2.0478,-2.0514,-2.049,-2.0491,-2.0491,-2.0491,-2.0492,-2.0046,-2.0056,-2.0092,-2.0117,-2.0142,-2.0167,-2.0181,-2.0211,-2.0234,-2.0268,-2.029,-2.0316,-2.035,-2.0398,-2.0419,-2.0441,-2.0451,-2.0452,-2.0452,-2.0452,-2.045,-2.0465,-2.0447,-2.0447,-2.0447,-2.0447,-2.0447,0,-2.0012,-2.0038,-2.0061,-2.0098,-2.0119,-2.0141,-2.0173,-2.0189,-2.0211,-2.0242,-2.0266,-2.0297,-2.0325,-2.0363,-2.0394,-2.0404,-2.0416,-2.0411,-2.0411,-2.0416,-2.0438,-2.0435,-2.04,-2.04,-2.04,-2.04,-2.04,-2.04,-1.9997,-2.0016,-2.0038,-2.007,-2.0096,-2.0122,-2.0139,-2.0163,-2.0187,-2.0221,-2.0245,-2.0269,-2.0303,-2.0337,-2.0364,-2.0375,-2.0385,-2.0376,-2.039,-2.041,-2.0414,-2.0418,-2.0416,-2.0378,-2.0378,-2.0367,-2.0367,-2.0367]}]]